• In Uzbekistan
  • List of Countries
  • For 7 days
  • Water Temperature
  • Satellite Maps
  • Weather Map
  • Weather Widgets
  • user-avatar
    Login

    Hourly Weather Ali Bayramli

    Today, 21 July, Friday

    Time Temperature Precipitation Wind Pressure Humidity
    00:00 +30°C° 0 mm 1 mps 753 mmHg 39%
    01:00 +29°C° 0 mm 1 mps 753 mmHg 40%
    02:00 +28°C° 0 mm 1 mps 753 mmHg 41%
    03:00 +28°C° 0 mm 1 mps 753 mmHg 50%
    04:00 +29°C° 0 mm 1 mps 753 mmHg 48%
    05:00 +29°C° 0 mm 1 mps 753 mmHg 47%
    06:00 +30°C° 0 mm 1 mps 754 mmHg 45%
    07:00 +32°C° 0 mm 1 mps 754 mmHg 39%
    08:00 +34°C° 0 mm 1 mps 754 mmHg 33%
    09:00 +35°C° 0 mm 1 mps 754 mmHg 27%
    10:00 +38°C° 0 mm 2 mps 754 mmHg 24%
    11:00 +39°C° 0 mm 3 mps 754 mmHg 21%
    12:00 +42°C° 0 mm 4 mps 754 mmHg 18%
    13:00 +42°C° 0 mm 5 mps 754 mmHg 17%
    14:00 +42°C° 0 mm 5 mps 754 mmHg 16%
    15:00 +42°C° 0 mm 6 mps 754 mmHg 16%
    16:00 +41°C° 0 mm 6 mps 754 mmHg 17%
    17:00 +40°C° 0 mm 6 mps 754 mmHg 19%
    18:00 +39°C° 0 mm 6 mps 754 mmHg 21%
    19:00 +36°C° 0 mm 5 mps 754 mmHg 24%
    20:00 +35°C° 0 mm 4 mps 755 mmHg 27%
    21:00 +33°C° 0 mm 4 mps 755 mmHg 31%
    22:00 +33°C° 0 mm 4 mps 755 mmHg 33%
    23:00 +31°C° 0 mm 3 mps 755 mmHg 35%

    Tomorrow, 22 July, Saturday

    Time Temperature Precipitation Wind Pressure Humidity
    00:00 +31°C° 0 mm 3 mps 755 mmHg 37%
    01:00 +30°C° 0 mm 3 mps 755 mmHg 39%
    02:00 +30°C° 0 mm 3 mps 755 mmHg 40%
    03:00 +29°C° 0 mm 3 mps 755 mmHg 41%
    04:00 +30°C° 0 mm 3 mps 755 mmHg 40%
    05:00 +30°C° 0 mm 3 mps 756 mmHg 39%
    06:00 +30°C° 0 mm 2 mps 756 mmHg 39%
    07:00 +33°C° 0 mm 3 mps 756 mmHg 34%
    08:00 +35°C° 0 mm 3 mps 756 mmHg 30%
    09:00 +37°C° 0 mm 3 mps 756 mmHg 25%
    10:00 +38°C° 0 mm 3 mps 756 mmHg 23%
    11:00 +40°C° 0 mm 4 mps 755 mmHg 21%
    12:00 +41°C° 0 mm 5 mps 755 mmHg 20%
    13:00 +42°C° 0 mm 5 mps 755 mmHg 20%
    14:00 +42°C° 0 mm 6 mps 755 mmHg 20%
    15:00 +43°C° 0 mm 7 mps 754 mmHg 20%
    16:00 +41°C° 0 mm 6 mps 754 mmHg 22%
    17:00 +39°C° 0 mm 6 mps 754 mmHg 24%
    18:00 +38°C° 0 mm 6 mps 754 mmHg 26%
    19:00 +36°C° 0 mm 5 mps 754 mmHg 30%
    20:00 +34°C° 0 mm 4 mps 754 mmHg 34%
    21:00 +33°C° 0 mm 3 mps 754 mmHg 37%
    22:00 +31°C° 0 mm 3 mps 754 mmHg 39%
    23:00 +31°C° 0 mm 2 mps 754 mmHg 40%

    Day after tomorrow, 23 July, Sunday

    Time Temperature Precipitation Wind Pressure Humidity
    00:00 +30°C° 0 mm 2 mps 754 mmHg 41%
    01:00 +30°C° 0 mm 2 mps 754 mmHg 41%
    02:00 +29°C° 0 mm 2 mps 754 mmHg 42%
    03:00 +29°C° 0 mm 2 mps 753 mmHg 42%
    04:00 +30°C° 0 mm 1 mps 753 mmHg 41%
    05:00 +30°C° 0 mm 1 mps 753 mmHg 40%
    06:00 +31°C° 0 mm 1 mps 753 mmHg 38%
    07:00 +32°C° 0 mm 1 mps 753 mmHg 35%
    08:00 +34°C° 0 mm 1 mps 753 mmHg 31%
    09:00 +35°C° 0 mm 1 mps 753 mmHg 27%
    10:00 +37°C° 0 mm 1 mps 753 mmHg 24%
    11:00 +39°C° 0 mm 2 mps 752 mmHg 21%
    12:00 +40°C° 0 mm 3 mps 752 mmHg 18%
    13:00 +42°C° 0 mm 3 mps 752 mmHg 17%
    14:00 +42°C° 0 mm 4 mps 752 mmHg 17%
    15:00 +43°C° 0 mm 5 mps 751 mmHg 17%
    16:00 +42°C° 0 mm 5 mps 751 mmHg 19%
    17:00 +40°C° 0 mm 6 mps 751 mmHg 21%
    18:00 +39°C° 0 mm 6 mps 751 mmHg 22%
    19:00 +37°C° 0 mm 5 mps 751 mmHg 26%
    20:00 +35°C° 0 mm 5 mps 752 mmHg 30%
    21:00 +34°C° 0 mm 4 mps 752 mmHg 33%
    22:00 +33°C° 0 mm 4 mps 752 mmHg 34%
    23:00 +33°C° 0 mm 5 mps 753 mmHg 36%

    24 July, Monday

    Time Temperature Precipitation Wind Pressure Humidity
    00:00 +32°C° 0 mm 5 mps 753 mmHg 37%
    01:00 +32°C° 0 mm 5 mps 753 mmHg 39%
    02:00 +32°C° 0 mm 6 mps 753 mmHg 41%
    03:00 +30°C° 0 mm 6 mps 753 mmHg 43%
    04:00 +30°C° 0 mm 6 mps 753 mmHg 43%
    05:00 +30°C° 0 mm 7 mps 754 mmHg 43%
    06:00 +32°C° 0 mm 7 mps 754 mmHg 43%
    07:00 +33°C° 0 mm 6 mps 754 mmHg 39%
    08:00 +35°C° 0 mm 6 mps 754 mmHg 35%
    09:00 +36°C° 0 mm 6 mps 754 mmHg 31%
    10:00 +39°C° 0 mm 6 mps 754 mmHg 28%
    11:00 +40°C° 0 mm 6 mps 753 mmHg 25%
    12:00 +41°C° 0 mm 6 mps 753 mmHg 22%
    13:00 +41°C° 0 mm 7 mps 753 mmHg 22%
    14:00 +41°C° 0 mm 8 mps 753 mmHg 22%
    15:00 +42°C° 0 mm 9 mps 753 mmHg 22%
    16:00 +40°C° 0 mm 9 mps 753 mmHg 25%
    17:00 +39°C° 0 mm 9 mps 753 mmHg 27%
    18:00 +38°C° 0 mm 10 mps 753 mmHg 29%
    19:00 +37°C° 0 mm 9 mps 753 mmHg 32%
    20:00 +34°C° 0 mm 8 mps 753 mmHg 35%
    21:00 +33°C° 0 mm 7 mps 753 mmHg 38%
    22:00 +33°C° 0 mm 6 mps 753 mmHg 39%
    23:00 +32°C° 0 mm 6 mps 753 mmHg 41%

    25 July, Tuesday

    Time Temperature Precipitation Wind Pressure Humidity
    00:00 +30°C° 0 mm 5 mps 753 mmHg 42%
    01:00 +30°C° 0 mm 4 mps 753 mmHg 44%
    02:00 +29°C° 0 mm 4 mps 753 mmHg 46%
    03:00 +29°C° 0 mm 3 mps 753 mmHg 48%
    04:00 +29°C° 0 mm 3 mps 753 mmHg 47%
    05:00 +29°C° 0 mm 3 mps 753 mmHg 47%
    06:00 +29°C° 0 mm 3 mps 753 mmHg 47%
    07:00 +31°C° 0 mm 3 mps 753 mmHg 42%
    08:00 +34°C° 0 mm 3 mps 753 mmHg 36%
    09:00 +35°C° 0 mm 3 mps 752 mmHg 31%
    10:00 +37°C° 0 mm 3 mps 752 mmHg 29%
    11:00 +38°C° 0 mm 3 mps 752 mmHg 26%
    12:00 +41°C° 0 mm 4 mps 751 mmHg 24%
    13:00 +41°C° 0 mm 5 mps 751 mmHg 23%
    14:00 +41°C° 0 mm 5 mps 750 mmHg 23%
    15:00 +42°C° 0 mm 6 mps 750 mmHg 23%
    16:00 +40°C° 0 mm 6 mps 750 mmHg 26%
    17:00 +39°C° 0 mm 6 mps 750 mmHg 28%
    18:00 +38°C° 0 mm 7 mps 750 mmHg 30%
    19:00 +36°C° 0 mm 6 mps 750 mmHg 34%
    20:00 +34°C° 0 mm 5 mps 751 mmHg 38%
    21:00 +33°C° 0 mm 4 mps 751 mmHg 42%
    22:00 +32°C° 0 mm 4 mps 751 mmHg 45%
    23:00 +31°C° 0 mm 3 mps 751 mmHg 47%

    26 July, Wednesday

    Time Temperature Precipitation Wind Pressure Humidity
    00:00 +30°C° 0 mm 3 mps 751 mmHg 50%
    01:00 +29°C° 0 mm 2 mps 751 mmHg 52%
    02:00 +29°C° 0 mm 2 mps 751 mmHg 53%
    03:00 +28°C° 0 mm 2 mps 751 mmHg 55%
    04:00 +29°C° 0 mm 2 mps 751 mmHg 54%
    05:00 +29°C° 0 mm 2 mps 751 mmHg 53%
    06:00 +29°C° 0 mm 2 mps 752 mmHg 51%
    07:00 +31°C° 0 mm 2 mps 752 mmHg 45%
    08:00 +34°C° 0 mm 2 mps 752 mmHg 39%
    09:00 +36°C° 0 mm 2 mps 752 mmHg 32%
    10:00 +37°C° 0 mm 2 mps 752 mmHg 29%
    11:00 +39°C° 0 mm 2 mps 751 mmHg 26%
    12:00 +40°C° 0 mm 2 mps 751 mmHg 23%
    13:00 +40°C° 0 mm 3 mps 751 mmHg 23%
    14:00 +42°C° 0 mm 4 mps 751 mmHg 23%
    15:00 +42°C° 0 mm 5 mps 751 mmHg 23%
    16:00 +41°C° 0 mm 5 mps 751 mmHg 25%
    17:00 +40°C° 0 mm 6 mps 751 mmHg 27%
    18:00 +39°C° 0 mm 7 mps 751 mmHg 30%
    19:00 +38°C° 0 mm 6 mps 752 mmHg 33%
    20:00 +35°C° 0 mm 6 mps 752 mmHg 36%
    21:00 +34°C° 0 mm 5 mps 753 mmHg 39%
    22:00 +33°C° 0 mm 4 mps 753 mmHg 40%
    23:00 +33°C° 0 mm 4 mps 753 mmHg 41%
    Show more